Temp
11 11 11 11 10 10 10 11 10 10 10 10 9 9 9 9 9 9 9 9 9 9 9 9 9 9 9 9 9 10 10 9 9 10 11 12 12 12 12 13 12 12 11
10 10 9 10 9 10 10 9 9 9 9 8 9 8 8 8 8 9 8 8 8 9 9 8 8 8 8 8 8 8 8 8 7 6 7 8 10 10 9 9 9 8 9
9 9 9 9 9 9 10 9 9 9 8 8 9 9 8 8 8 8 8 8 8 8 7 7 7 7 7 7 7 7 6 6 6 3 2 3 3 6 8 7 7 7 7
9 9 8 8 8 9 9 9 9 9 8 8 8 8 8 8 8 7 7 7 6 6 6 6 6 6 6 6 6 5 5 3 0 3 1 1 1 2 3 7 6 6 6
10 8 8 8 8 8 8 7 8 8 8 8 8 8 8 7 7 6 6 6 6 6 6 6 6 6 6 5 4 3 2 -1 -2 -2 -1 -0 0 1 1 2 3 5 5
9 8 8 7 7 7 7 7 7 8 8 8 7 7 7 7 6 6 6 5 5 5 5 5 5 4 3 2 1 -1 -2 -2 -1 -1 -1 -1 -1 -1 -1 -1 0 1 0
8 7 7 7 6 7 6 7 6 7 7 7 6 6 6 6 6 5 5 4 4 4 4 3 3 2 2 1 0 -0 -0 -1 -1 -1 -1 -1 -2 -1 -1 -2 -2 -2 -0
7 7 7 6 6 6 6 5 5 6 6 6 5 6 6 6 5 5 4 3 3 3 2 2 1 1 1 1 0 -0 -1 -1 -1 -1 -1 -2 -3 -3 -3 -3 -4 -4 -2
7 6 6 6 6 6 5 5 5 5 5 5 5 5 5 5 4 3 3 3 2 2 1 1 1 0 0 -0 -0 -1 -1 -2 -2 -2 -2 -3 -3 -4 -3 -3 -4 -5 -4
4 4 6 6 5 5 5 4 4 5 5 4 4 4 3 3 3 3 2 2 2 1 1 0 -0 -0 -0 -1 -1 -1 -2 -2 -2 -3 -4 -3 -4 -4 -5 -4 -4 -5 -5
3 4 4 5 5 4 4 4 4 4 4 3 3 3 2 2 2 2 1 1 1 0 -0 -0 -0 -0 -1 -2 -1 -2 -3 -3 -4 -4 -4 -4 -4 -5 -5 -5 -5 -5 -5
3 3 4 4 4 4 3 3 3 3 3 2 1 1 1 1 2 1 1 0 0 -0 -0 -1 -1 -1 -2 -2 -3 -3 -4 -4 -4 -4 -4 -4 -5 -6 -6 -6 -5 -5 -5
2 3 4 4 4 4 3 3 3 2 1 1 1 0 -0 0 0 -0 -0 -1 -1 -1 -1 -1 -2 -3 -3 -4 -4 -4 -4 -4 -4 -5 -5 -5 -5 -5 -6 -5 -5 -5 -6
3 3 4 4 4 3 3 3 3 1 0 1 0 -0 -0 -0 -1 -1 -1 -2 -1 -2 -1 -2 -3 -4 -4 -5 -4 -5 -5 -5 -5 -5 -5 -6 -5 -6 -6 -6 -5 -5 -5
2 3 4 4 4 4 4 3 2 1 1 1 -0 -1 -1 -1 -2 -2 -2 -2 -2 -2 -3 -3 -5 -5 -5 -4 -4 -6 -6 -6 -6 -6 -6 -6 -6 -6 -6 -6 -6 -6 -6
2 3 4 6 6 4 4 3 2 0 0 -1 -1 -2 -2 -2 -3 -3 -3 -2 -3 -3 -4 -5 -5 -6 -5 -4 -5 -7 -7 -6 -7 -7 -8 -8 -7 -8 -7 -7 -7 -6 -6
3 4 5 6 6 5 3 1 -1 -0 -1 -1 -2 -3 -2 -3 -3 -3 -3 -3 -3 -4 -5 -5 -6 -6 -6 -5 -6 -8 -7 -7 -8 -9 -9 -8 -8 -8 -8 -8 -8 -8 -7
4 7 5 4 5 4 2 1 1 -0 -1 -2 -2 -3 -3 -3 -4 -4 -4 -4 -4 -5 -5 -6 -7 -6 -5 -6 -8 -9 -9 -9 -9 -10 -10 -10 -9 -9 -9 -9 -9 -9 -8
7 7 5 4 4 4 2 1 0 0 -1 -2 -3 -3 -4 -4 -4 -4 -4 -5 -5 -6 -6 -7 -8 -7 -6 -8 -9 -10 -10 -10 -11 -12 -12 -11 -10 -10 -10 -10 -10 -10 -10
6 6 5 4 3 2 2 1 0 -0 -1 -2 -3 -3 -4 -4 -4 -4 -5 -6 -6 -7 -7 -8 -9 -8 -8 -9 -10 -11 -11 -11 -11 -12 -12 -14 -11 -10 -10 -9 -10 -10 -11
7 7 5 5 3 2 1 -0 1 -1 -1 -3 -4 -4 -5 -5 -5 -6 -6 -7 -7 -8 -9 -10 -10 -9 -10 -13 -12 -12 -11 -11 -11 -11 -11 -12 -12 -10 -10 -10 -10 -11 -11
4 4 3 2 1 1 0 0 -0 -0 -2 -4 -4 -5 -5 -6 -7 -6 -7 -7 -8 -9 -9 -10 -10 -11 -11 -13 -14 -13 -12 -12 -11 -11 -11 -11 -11 -11 -11 -11 -12 -12 -11
1 1 2 1 -0 -0 0 -0 -0 -2 -3 -4 -5 -5 -6 -7 -7 -7 -7 -8 -9 -10 -10 -10 -10 -11 -12 -13 -14 -13 -13 -12 -11 -11 -11 -12 -12 -12 -11 -12 -11 -11 -10
-0 0 0 0 -1 -1 -1 -1 -2 -3 -4 -4 -6 -7 -7 -7 -7 -8 -9 -9 -9 -10 -10 -10 -11 -11 -12 -12 -13 -13 -12 -12 -12 -11 -11 -11 -11 -11 -12 -12 -11 -11 -11
-2 -1 -1 -1 -1 -2 -2 -2 -2 -3 -4 -5 -7 -7 -8 -7 -8 -9 -9 -10 -11 -11 -10 -10 -11 -12 -12 -12 -13 -12 -12 -12 -11 -11 -12 -12 -12 -12 -11 -11 -11 -12 -12
-1 -2 -2 -1 -2 -2 -2 -3 -3 -4 -4 -6 -7 -7 -7 -9 -9 -10 -10 -11 -12 -11 -12 -12 -12 -13 -14 -14 -14 -12 -11 -11 -11 -12 -12 -12 -12 -12 -12 -12 -12 -12 -13
Height
1492 1497 1500 1504 1505 1507 1508 1507 1508 1508 1509 1510 1511 1512 1513 1513 1513 1513 1513 1512 1511 1510 1509 1508 1508 1507 1506 1504 1503 1502 1501 1500 1498 1495 1494 1494 1491 1490 1488 1486 1485 1486 1486
1485 1490 1494 1499 1502 1504 1506 1506 1505 1506 1507 1508 1509 1510 1510 1511 1511 1511 1511 1510 1509 1508 1507 1506 1505 1503 1502 1501 1499 1497 1496 1496 1495 1493 1492 1490 1489 1488 1485 1482 1481 1481 1483
1478 1482 1487 1493 1497 1499 1502 1503 1504 1505 1506 1506 1507 1508 1509 1510 1510 1509 1508 1508 1506 1506 1505 1504 1502 1500 1498 1497 1495 1494 1492 1492 1492 1493 1495 1494 1490 1485 1484 1481 1482 1478 1479
1474 1479 1483 1488 1492 1495 1498 1499 1500 1502 1504 1505 1505 1506 1508 1508 1508 1508 1507 1505 1504 1503 1501 1499 1498 1498 1497 1496 1494 1492 1491 1489 1489 1491 1493 1493 1493 1490 1482 1480 1479 1478 1475
1462 1470 1477 1484 1488 1492 1495 1497 1498 1500 1501 1502 1503 1504 1505 1506 1506 1506 1505 1504 1502 1500 1499 1498 1497 1497 1497 1494 1492 1489 1488 1488 1488 1488 1488 1487 1487 1488 1486 1479 1473 1475 1474
1457 1464 1472 1480 1483 1487 1490 1494 1496 1498 1499 1500 1501 1501 1502 1503 1504 1504 1504 1503 1501 1500 1499 1498 1497 1496 1496 1494 1491 1490 1490 1490 1487 1486 1487 1484 1484 1482 1485 1479 1473 1473 1470
1449 1455 1464 1470 1476 1481 1485 1490 1493 1496 1497 1498 1499 1500 1500 1501 1501 1502 1503 1503 1502 1500 1498 1497 1496 1496 1495 1494 1494 1493 1491 1491 1488 1485 1484 1483 1481 1481 1480 1477 1473 1473 1467
1442 1447 1455 1462 1470 1476 1482 1487 1490 1493 1495 1497 1498 1498 1498 1498 1499 1500 1501 1501 1501 1499 1498 1497 1497 1496 1494 1492 1493 1494 1491 1490 1488 1484 1482 1480 1479 1480 1476 1473 1472 1471 1468
1434 1441 1450 1458 1465 1471 1476 1483 1488 1491 1493 1495 1496 1497 1497 1496 1497 1499 1499 1500 1499 1499 1499 1498 1498 1495 1494 1492 1491 1492 1492 1489 1487 1484 1483 1480 1478 1477 1474 1471 1472 1471 1469
1434 1438 1446 1454 1462 1468 1473 1479 1486 1489 1492 1494 1494 1495 1496 1495 1495 1496 1498 1499 1498 1499 1499 1500 1499 1495 1493 1492 1490 1491 1491 1489 1485 1485 1483 1479 1477 1475 1472 1470 1470 1468 1466
1432 1437 1443 1452 1460 1466 1470 1475 1481 1487 1491 1492 1492 1493 1494 1496 1495 1496 1497 1497 1498 1499 1498 1498 1498 1496 1494 1492 1490 1492 1490 1488 1485 1485 1481 1478 1476 1474 1473 1470 1468 1465 1463
1430 1437 1442 1450 1456 1462 1467 1472 1477 1482 1488 1490 1491 1492 1493 1494 1493 1495 1495 1497 1495 1498 1495 1498 1498 1494 1494 1493 1490 1491 1488 1488 1486 1483 1480 1478 1476 1474 1472 1470 1466 1462 1461
1427 1433 1441 1447 1453 1460 1465 1470 1474 1479 1485 1486 1488 1489 1492 1493 1493 1493 1494 1497 1495 1497 1494 1495 1497 1497 1493 1491 1490 1489 1487 1488 1486 1482 1480 1478 1475 1473 1471 1468 1465 1462 1460
1421 1427 1434 1441 1449 1456 1462 1466 1470 1475 1480 1481 1484 1488 1488 1490 1493 1494 1495 1496 1494 1494 1494 1496 1496 1497 1492 1489 1488 1490 1488 1488 1485 1482 1480 1478 1475 1473 1471 1468 1465 1463 1461
1419 1424 1427 1435 1443 1449 1454 1459 1463 1468 1474 1476 1479 1485 1486 1487 1489 1492 1496 1493 1493 1493 1496 1495 1495 1496 1492 1487 1487 1490 1489 1487 1484 1483 1481 1479 1477 1474 1472 1469 1466 1464 1462
1413 1424 1427 1426 1433 1440 1445 1451 1456 1460 1467 1470 1475 1479 1483 1484 1487 1490 1492 1492 1494 1494 1495 1495 1494 1496 1490 1486 1488 1491 1490 1487 1485 1483 1482 1479 1477 1475 1473 1470 1468 1466 1463
1420 1417 1426 1425 1426 1435 1442 1446 1452 1457 1462 1468 1472 1478 1477 1482 1484 1487 1489 1489 1491 1494 1494 1495 1496 1493 1489 1485 1489 1492 1490 1488 1486 1485 1483 1480 1478 1477 1475 1472 1471 1468 1466
1420 1416 1417 1427 1429 1433 1437 1443 1450 1452 1458 1463 1469 1473 1475 1477 1481 1485 1486 1488 1488 1492 1494 1495 1496 1492 1488 1488 1490 1492 1490 1489 1488 1486 1484 1482 1480 1478 1477 1475 1473 1470 1468
1414 1415 1418 1422 1424 1425 1432 1438 1442 1447 1453 1458 1466 1470 1474 1475 1478 1480 1485 1485 1485 1491 1494 1495 1494 1490 1488 1489 1491 1492 1491 1490 1489 1488 1486 1485 1483 1481 1480 1478 1475 1473 1471
1407 1409 1413 1416 1421 1425 1428 1435 1438 1444 1451 1457 1462 1468 1474 1474 1477 1476 1482 1484 1484 1489 1493 1495 1493 1488 1489 1491 1493 1493 1492 1492 1491 1491 1489 1488 1486 1485 1483 1481 1479 1477 1475
1401 1404 1406 1408 1414 1420 1426 1432 1438 1444 1448 1455 1462 1467 1470 1475 1476 1476 1478 1482 1484 1488 1492 1495 1491 1489 1491 1492 1493 1492 1492 1492 1492 1492 1491 1489 1487 1486 1485 1483 1481 1478 1478
1398 1399 1402 1406 1410 1416 1422 1428 1438 1443 1449 1454 1460 1463 1465 1473 1477 1475 1477 1480 1484 1489 1490 1493 1489 1491 1492 1494 1494 1493 1492 1492 1493 1492 1491 1490 1489 1488 1487 1485 1483 1482 1481
1401 1401 1402 1407 1412 1416 1420 1428 1436 1441 1447 1452 1456 1458 1463 1470 1473 1474 1477 1480 1485 1487 1489 1490 1489 1491 1493 1495 1495 1494 1493 1493 1493 1492 1492 1491 1490 1489 1488 1487 1486 1484 1481
1402 1404 1407 1408 1412 1414 1420 1430 1437 1440 1446 1451 1456 1460 1464 1463 1470 1474 1477 1481 1484 1485 1487 1488 1489 1492 1493 1494 1494 1494 1494 1494 1494 1493 1492 1492 1491 1491 1490 1488 1487 1484 1481
1404 1406 1408 1410 1413 1417 1422 1429 1434 1440 1444 1449 1454 1457 1465 1463 1467 1472 1477 1480 1484 1486 1487 1488 1490 1491 1492 1493 1493 1493 1493 1494 1494 1494 1494 1493 1493 1493 1491 1489 1487 1485 1483
1404 1408 1410 1412 1415 1419 1424 1429 1434 1438 1443 1446 1452 1456 1460 1463 1467 1472 1474 1480 1483 1485 1486 1488 1490 1491 1492 1492 1492 1492 1493 1494 1495 1495 1495 1494 1494 1493 1491 1489 1486 1484 1481
Wind_Speed
31 27 23 20 16 13 11 9 8 8 8 6 4 3 1 1 2 3 5 6 8 9 10 12 14 16 17 18 20 21 21 21 23 24 20 19 18 17 18 19 20 21 19
35 31 27 23 18 13 12 10 9 9 8 7 5 3 2 1 4 6 8 9 10 10 11 11 13 14 15 16 18 20 21 21 21 22 21 11 11 9 10 11 13 9 10
42 38 33 27 22 17 13 10 10 10 11 9 7 5 3 2 4 6 8 9 10 11 11 12 14 16 17 18 18 18 18 18 15 10 8 8 6 17 7 10 11 9 10
42 40 36 31 24 19 15 13 13 13 12 11 8 5 3 2 3 4 6 8 9 11 13 15 17 18 19 18 18 18 18 17 17 10 6 7 11 7 13 11 12 14 13
48 45 39 32 25 20 17 17 16 14 12 10 8 6 4 2 1 3 5 7 10 12 14 16 17 18 18 18 18 16 16 15 14 12 14 13 11 10 14 22 24 28 23
46 44 39 32 28 23 21 19 16 15 13 10 9 7 5 2 1 3 5 8 9 11 12 14 15 16 16 17 19 17 16 13 12 11 11 11 12 13 16 23 29 36 32
46 46 43 40 33 28 25 22 18 14 12 11 10 8 5 3 2 3 6 7 8 10 12 13 14 15 16 16 16 15 12 12 12 11 10 10 11 14 17 20 21 27 34
45 47 46 43 36 31 28 23 19 16 13 11 9 7 5 3 2 3 5 7 9 11 13 13 13 13 13 14 14 14 14 13 13 12 10 9 9 11 12 14 16 19 18
44 45 46 43 38 33 27 23 20 16 13 12 10 7 5 3 2 4 4 7 9 10 11 11 10 11 12 13 12 13 13 12 12 12 10 8 8 9 12 13 12 8 8
36 41 45 43 36 30 26 23 19 15 13 12 10 8 6 4 3 3 4 5 7 9 9 10 10 10 11 12 12 12 12 11 11 9 8 8 8 9 8 9 8 6 8
33 38 44 42 35 30 27 23 20 17 15 13 11 9 7 5 3 2 2 4 6 7 8 9 9 10 10 10 11 11 10 10 9 8 8 8 8 8 8 8 6 5 7
31 36 42 40 35 30 27 24 20 18 16 13 11 10 8 5 3 2 2 2 4 6 7 8 9 9 8 8 8 8 8 8 8 9 8 8 7 7 7 7 7 7 7
31 36 40 39 35 31 28 23 20 18 17 15 14 11 7 4 2 1 1 3 4 6 7 8 8 7 6 6 7 8 8 8 9 10 10 10 9 8 9 10 10 9 8
33 39 41 39 35 31 28 25 22 21 19 17 14 11 7 5 3 1 2 2 4 5 6 5 6 4 4 5 7 8 7 8 9 10 10 10 11 11 10 12 13 12 11
34 41 44 40 37 35 30 27 25 24 21 18 15 12 9 7 5 4 4 2 3 3 3 3 3 3 5 6 7 6 7 7 8 9 10 9 10 11 12 13 14 13 12
33 38 42 42 40 39 35 30 30 28 25 19 18 14 11 9 8 6 4 2 2 1 1 1 1 3 6 8 7 6 7 9 9 9 10 10 10 12 13 14 14 14 15
27 36 42 46 42 36 34 37 34 27 24 21 18 16 14 12 9 8 5 3 2 2 2 1 1 2 4 7 7 6 7 9 9 10 11 10 10 11 13 14 14 15 16
31 32 39 43 39 37 38 36 32 29 23 22 21 19 16 14 11 9 7 5 5 4 2 2 2 2 5 6 7 7 8 9 12 14 14 12 12 13 14 14 15 17 18
29 31 33 40 43 45 39 38 36 28 27 24 24 19 18 14 13 10 9 8 6 4 3 3 2 3 5 7 6 6 7 7 11 15 17 14 13 13 14 14 17 17 19
21 26 32 38 40 42 38 38 34 31 28 25 22 20 18 15 14 12 11 9 7 5 4 3 4 8 7 5 5 6 7 6 7 8 12 16 15 13 13 13 15 15 17
19 24 33 39 39 37 35 38 34 31 26 25 23 20 17 16 15 14 12 10 7 6 5 5 5 6 8 8 6 6 7 8 8 10 11 14 16 16 15 15 16 18 15
7 15 28 33 32 32 34 38 33 29 27 26 24 21 20 20 18 14 14 11 8 7 6 7 6 6 7 6 5 7 8 9 8 11 12 13 14 15 15 15 16 14 14
7 13 19 24 26 30 31 35 34 32 31 28 24 23 22 21 18 16 13 12 10 7 8 8 7 7 6 8 3 4 6 7 8 10 11 12 13 13 14 15 15 14 15
9 12 17 21 26 28 32 32 30 30 27 24 23 24 24 23 19 16 13 11 8 7 7 7 7 7 6 3 1 0 2 4 6 9 10 11 12 12 12 12 13 15 18
9 12 16 20 24 29 31 31 28 28 26 25 25 25 23 21 20 16 12 10 7 5 4 6 7 6 4 3 2 3 4 5 6 7 8 7 6 7 8 10 13 14 15
9 14 16 19 24 27 29 28 26 26 26 26 26 25 25 23 20 19 17 13 9 8 8 8 8 7 5 4 5 5 6 4 4 5 4 4 6 8 10 12 14 15 17
Wind_Direction
203 204 204 204 200 198 201 197 205 227 226 221 212 209 229 281 326 342 344 340 337 332 325 317 311 306 305 305 302 300 303 308 311 314 300 295 287 276 273 264 258 255 256
202 203 202 202 202 205 202 203 201 213 215 214 214 213 224 298 340 351 354 350 344 337 332 329 328 328 326 321 316 312 308 308 317 326 327 319 297 271 260 258 251 239 242
203 202 200 200 202 203 209 204 196 191 194 199 202 208 222 299 339 345 343 342 342 340 339 338 337 335 332 328 326 324 324 324 319 339 334 333 320 317 284 254 256 246 248
211 210 202 199 200 202 201 195 187 178 180 185 187 196 222 277 320 336 351 356 358 1 0 357 352 346 338 330 325 323 323 324 329 328 260 269 292 316 306 265 267 276 271
212 210 206 201 199 202 200 192 187 186 185 184 182 187 196 211 337 13 10 8 10 9 4 359 354 348 344 341 338 335 336 337 336 334 324 312 283 275 276 292 295 280 279
212 211 205 199 198 197 198 193 191 190 185 181 180 181 182 166 68 20 16 18 16 10 5 4 4 4 4 6 4 360 353 350 344 340 329 323 317 296 294 297 294 294 300
207 208 198 195 195 195 194 195 193 191 184 184 182 177 169 146 76 25 26 25 18 13 14 13 13 13 17 18 12 6 -0 352 351 347 331 316 299 292 290 292 298 300 302
208 210 201 195 194 194 194 193 192 194 191 187 185 178 171 149 95 47 33 22 13 13 15 12 11 8 9 11 5 358 5 2 356 353 345 335 319 302 298 300 302 310 303
207 206 200 196 194 193 191 193 196 195 195 195 190 183 178 160 105 65 39 20 15 9 6 4 1 2 359 358 357 353 354 356 356 359 1 357 337 322 319 310 300 295 303
198 198 199 195 193 192 189 192 197 201 202 199 194 187 180 158 121 85 37 19 8 0 358 356 353 356 354 352 354 347 345 343 351 348 349 353 350 340 342 332 312 274 276
191 196 196 192 189 189 191 192 197 204 206 202 196 187 176 160 125 93 49 16 3 357 357 348 340 343 347 351 350 342 341 348 355 349 350 352 346 351 355 9 347 331 320
191 193 194 188 187 190 192 194 198 204 209 204 196 185 181 168 139 104 46 354 4 350 354 341 334 342 340 342 351 351 358 358 0 7 8 7 1 357 359 4 6 7 346
181 190 190 189 189 192 193 194 201 203 206 201 197 194 193 181 171 155 22 337 354 344 351 342 325 323 339 1 14 16 15 7 12 19 19 20 19 20 20 20 17 21 15
190 191 188 191 193 193 195 198 201 201 201 198 196 200 199 200 200 233 273 303 349 348 341 310 307 324 12 32 29 17 15 12 15 20 21 22 23 25 25 29 30 30 30
188 193 190 191 196 197 197 201 199 200 199 199 198 202 205 201 205 223 255 316 330 321 306 298 317 349 46 52 37 22 24 21 18 17 22 25 23 24 27 28 32 34 34
190 198 197 194 201 202 200 198 200 194 196 191 199 199 203 202 208 217 228 264 282 279 240 272 308 335 52 48 41 44 39 36 30 28 28 34 34 33 35 32 31 36 42
204 198 211 209 203 201 201 199 196 192 189 197 197 204 198 202 204 208 212 202 197 187 158 190 251 24 62 62 65 63 52 47 45 45 39 43 45 41 40 39 40 42 44
229 225 217 217 210 204 206 203 199 190 196 196 199 202 200 199 199 203 196 189 171 169 167 189 212 77 80 83 81 67 57 52 51 51 47 52 55 54 48 45 44 46 44
260 260 238 224 214 209 206 201 195 194 196 194 200 203 202 199 199 192 195 180 164 171 182 178 138 96 95 93 85 71 64 63 63 55 49 56 61 60 53 45 44 43 44
252 251 242 233 224 213 211 203 192 198 195 197 195 201 206 199 194 185 186 179 165 171 181 185 111 73 83 103 102 88 75 76 83 77 69 57 61 69 61 52 53 51 52
252 240 232 227 219 213 205 199 199 196 197 192 194 199 198 196 193 182 175 169 160 168 177 183 120 90 75 65 73 85 73 69 72 72 63 58 51 53 53 49 47 46 44
237 209 206 203 203 202 200 197 196 198 193 189 195 195 189 194 191 182 171 163 157 163 169 178 147 131 106 101 57 86 74 68 55 56 52 49 44 41 45 47 48 44 41
201 194 196 193 193 195 197 194 197 193 186 190 192 188 190 191 187 182 179 167 162 158 161 159 164 164 146 135 170 66 59 51 48 54 52 45 41 38 36 41 40 35 34
204 196 192 189 189 191 193 202 194 185 187 190 187 188 190 183 183 180 178 175 169 165 163 158 173 160 150 160 169 68 94 66 53 52 45 38 33 27 28 30 29 28 29
213 199 195 193 193 191 193 192 195 188 190 188 185 187 189 187 183 181 179 178 178 176 180 172 178 167 155 129 84 102 112 82 64 56 40 30 28 23 26 27 28 29 28
218 207 202 202 200 196 194 193 191 190 192 185 184 188 190 187 186 182 172 180 205 208 182 173 178 166 136 72 33 55 87 85 72 62 37 24 24 23 25 24 24 23 23